Regional Weather Roundup
Issued by NWS Sioux Falls, SD

Home | Current Version | Previous Version | Graphics & Text | Print | Product List | Glossary Off
Versions: 1 2 3 4 5 6 7 8 9 10 11 12 13 14 15 16 17 18 19 20 21 22 23 24 25 26 27 28 29 30 31 32 33 34 35 36 37 38 39 40 41 42 43 44 45 46 47 48 49 50

000
ASUS43 KFSD 230310
RWRFSD

WEATHER ROUNDUP FOR SE SOUTH DAKOTA/SW MINNESOTA/NW IOWA
NATIONAL WEATHER SERVICE SIOUX FALLS SD
1000 PM CDT FRI AUG 22 2014

NOTE: "FAIR" INDICATES FEW OR NO CLOUDS BELOW 12,000 FEET WITH NO
SIGNIFICANT WEATHER AND OR OBSTRUCTIONS TO VISIBILITY.


SDZ038>040-050-052>070-230400-
SOUTHEAST SOUTH DAKOTA

CITY           SKY/WX    TMP DP  RH WIND       PRES   REMARKS
CHAMBERLAIN    CLOUDY    73  68  87 NE8       29.98R
HURON          MOCLDY    76  69  79 E10       29.96S
MADISON        FAIR      73  72  94 E7        30.00S
MITCHELL       MOCLDY    76  71  85 E6        29.97R
SIOUX FALLS    CLOUDY    76  69  79 E7        30.00R
WINNER         MOCLDY    75  69  81 SE9       29.98R
YANKTON        MOCLDY    73  72  94 E8        29.97R
$$

MNZ071-072-080-081-089-090-097-098-230400-
SOUTHWEST MINNESOTA

CITY           SKY/WX    TMP DP  RH WIND       PRES   REMARKS
FAIRMONT       MOCLDY    66  66 100 NE6       30.01S
JACKSON        PTCLDY    70  66  88 E5        30.03R
LUVERNE        CLOUDY    73  70  88 E5        30.02R
MARSHALL       CLOUDY    75  68  78 E7        29.99S
MONTEVIDEO     CLOUDY    73  72  94 E6        30.01S
PIPESTONE      CLOUDY    75  70  83 SE5       30.02S
REDWOOD FALLS  MOCLDY    76  70  82 E6        30.00S
TRACY          CLOUDY    75  71  86 CALM      30.01S
WINDOM         MOCLDY    73  70  88 E3        30.02S
WORTHINGTON      N/A     70  70 100 E5        30.03S
$$

IAZ001>003-012>014-020>022-031-032-NEZ013-014-SDZ071-230400-
NORTHWEST IOWA

CITY           SKY/WX    TMP DP  RH WIND       PRES   REMARKS
CHEROKEE       CLOUDY    77  74  91 NE6       29.96R
DENISON        CLOUDY    73  73 100 CALM      29.94R
ESTHERVILLE    MOCLDY    70  69  97 NE8       30.01S
LE MARS        MOCLDY    77  73  88 NE5G13    29.96F
ORANGE CITY    MOCLDY    79  72  78 NE3       29.98F
SHELDON        MOCLDY    72  72 100 NE5       29.99R
SIOUX CITY     CLOUDY    79  72  79 CALM      29.95R
SPENCER        MOCLDY    74  70  87 NE10      29.99F
STORM LAKE     CLOUDY    73  73 100 NE5       29.98S
$$

ABBREVIATIONS USED IN REMARKS
   TC - TEMPERATURE IN CELSIUS
  WCI - WIND CHILL INDEX
   HX - HEAT INDEX
  VSB - VISIBILITY




USA.gov is the U.S. government's official web portal to all federal, state and local government web resources and services.